TimeEST,TemperatureF,Dew PointF,Humidity,Sea Level PressureIn,VisibilityMPH,Wind Direction,Wind SpeedMPH,Gust SpeedMPH,PrecipitationIn,Events,Conditions,WindDirDegrees,DateUTC
12:56 AM,23.0,9.0,55,29.99,10.0,NW,12.7,-,N/A,,Clear,310,2013-01-02 05:56:00
1:56 AM,21.9,8.1,55,30.01,10.0,WNW,13.8,-,N/A,,Clear,300,2013-01-02 06:56:00
2:56 AM,21.9,9.0,58,30.00,10.0,NW,13.8,-,N/A,,Clear,310,2013-01-02 07:56:00
3:56 AM,21.0,8.1,57,30.01,10.0,NW,16.1,-,N/A,,Clear,310,2013-01-02 08:56:00
4:56 AM,19.9,9.0,62,30.02,10.0,NW,6.9,-,N/A,,Clear,310,2013-01-02 09:56:00
5:56 AM,19.9,10.0,65,30.01,10.0,NNW,9.2,-,N/A,,Clear,330,2013-01-02 10:56:00
6:56 AM,19.0,9.0,65,30.02,10.0,NW,6.9,-,N/A,,Clear,320,2013-01-02 11:56:00
7:56 AM,19.0,10.0,68,30.03,10.0,Calm,Calm,-,N/A,,Clear,0,2013-01-02 12:56:00
8:56 AM,21.0,9.0,60,30.05,10.0,West,6.9,-,N/A,,Clear,280,2013-01-02 13:56:00
9:56 AM,23.0,9.0,55,30.06,10.0,WNW,17.3,23.0,N/A,,Clear,290,2013-01-02 14:56:00
10:56 AM,25.0,10.9,55,30.05,10.0,WNW,15.0,21.9,N/A,,Clear,300,2013-01-02 15:56:00
11:56 AM,27.0,12.0,53,30.01,10.0,WNW,17.3,27.6,N/A,,Partly Cloudy,300,2013-01-02 16:56:00
12:56 PM,28.0,12.0,51,30.01,10.0,West,13.8,23.0,N/A,,Clear,280,2013-01-02 17:56:00
1:56 PM,28.9,12.9,51,30.02,10.0,WNW,17.3,21.9,N/A,,Clear,300,2013-01-02 18:56:00
2:56 PM,28.9,12.9,51,30.04,10.0,WNW,12.7,21.9,N/A,,Clear,290,2013-01-02 19:56:00
3:56 PM,28.9,12.0,49,30.06,10.0,WNW,16.1,-,N/A,,Clear,300,2013-01-02 20:56:00
4:56 PM,28.9,12.9,51,30.07,10.0,NW,10.4,18.4,N/A,,Partly Cloudy,310,2013-01-02 21:56:00
5:56 PM,28.0,12.9,53,30.09,10.0,West,10.4,-,N/A,,Clear,280,2013-01-02 22:56:00
6:56 PM,28.0,14.0,56,30.11,10.0,West,9.2,-,N/A,,Clear,280,2013-01-02 23:56:00
7:56 PM,28.0,14.0,56,30.11,10.0,Variable,6.9,-,N/A,,Clear,0,2013-01-03 00:56:00
8:56 PM,28.0,15.1,58,30.13,10.0,West,5.8,-,N/A,,Clear,270,2013-01-03 01:56:00
9:56 PM,27.0,15.1,61,30.14,10.0,West,5.8,-,N/A,,Clear,270,2013-01-03 02:56:00
10:56 PM,27.0,15.1,61,30.16,10.0,WNW,6.9,-,N/A,,Clear,290,2013-01-03 03:56:00
11:56 PM,27.0,15.1,61,30.16,10.0,WNW,6.9,-,N/A,,Clear,290,2013-01-03 04:56:00